| time (UTC) | temp C | wind direction | speed KPH | gust KPH | rain 1hr cm | rain 24hr cm | rain mn cm | humidity % | barometer mb |
| 20260504050445 | 8 | 248 | 4.8 | 4.8 | 0.00 | 0.00 | 0.00 | 47 | 1010.6 |
| 20260504045942 | 8 | 254 | 8.0 | 9.7 | 0.00 | 0.00 | 0.00 | 47 | 1010.6 |
| 20260504045437 | 8 | 248 | 4.8 | 8.0 | 0.00 | 0.00 | 0.00 | 47 | 1010.6 |
| 20260504044934 | 8 | 230 | 4.8 | 4.8 | 0.00 | 0.00 | 0.00 | 46 | 1010.6 |
| 20260504044432 | 8 | 242 | 6.4 | 8.0 | 0.00 | 0.00 | 0.00 | 46 | 1010.6 |
| 20260504043929 | 8 | 205 | 4.8 | 4.8 | 0.00 | 0.00 | 0.00 | 46 | 1010.6 |
| 20260504043426 | 8 | 200 | 4.8 | 4.8 | 0.00 | 0.00 | 0.00 | 46 | 1010.6 |
| 20260504042923 | 8 | 197 | 4.8 | 3.2 | 0.00 | 0.00 | 0.00 | 46 | 1010.2 |
| 20260504042420 | 8 | 222 | 3.2 | 3.2 | 0.00 | 0.00 | 0.00 | 46 | 1010.6 |
| 20260504041916 | 8 | 232 | 6.4 | 8.0 | 0.00 | 0.00 | 0.00 | 45 | 1010.6 |
| 20260504041412 | 9 | 221 | 6.4 | 8.0 | 0.00 | 0.00 | 0.00 | 44 | 1010.6 |
| 20260504040909 | 9 | 222 | 4.8 | 4.8 | 0.00 | 0.00 | 0.00 | 44 | 1010.6 |
| 20260504040407 | 9 | 227 | 6.4 | 9.7 | 0.00 | 0.00 | 0.00 | 44 | 1010.6 |
| 20260504035902 | 9 | 239 | 4.8 | 4.8 | 0.00 | 0.00 | 0.00 | 43 | 1010.6 |
| 20260504035400 | 9 | 259 | 4.8 | 4.8 | 0.00 | 0.00 | 0.00 | 43 | 1010.6 |
| 20260504034856 | 9 | 225 | 4.8 | 4.8 | 0.00 | 0.00 | 0.00 | 43 | 1010.6 |
| 20260504034354 | 9 | 232 | 4.8 | 3.2 | 0.00 | 0.00 | 0.00 | 43 | 1011.0 |
| 20260504033850 | 9 | 230 | 4.8 | 3.2 | 0.00 | 0.00 | 0.00 | 44 | 1010.6 |
| 20260504033349 | 9 | 239 | 4.8 | 4.8 | 0.00 | 0.00 | 0.00 | 44 | 1010.6 |
| 20260504032845 | 9 | 230 | 4.8 | 4.8 | 0.00 | 0.00 | 0.00 | 44 | 1010.6 |
| 20260504032342 | 9 | 215 | 4.8 | 4.8 | 0.00 | 0.00 | 0.00 | 43 | 1010.6 |
| 20260504031839 | 9 | 229 | 3.2 | 3.2 | 0.00 | 0.00 | 0.00 | 44 | 1011.0 |
| 20260504031336 | 9 | 245 | 6.4 | 4.8 | 0.00 | 0.00 | 0.00 | 43 | 1011.3 |
| 20260504030832 | 9 | 233 | 6.4 | 9.7 | 0.00 | 0.00 | 0.00 | 44 | 1011.3 |
| 20260504030330 | 10 | 242 | 3.2 | 3.2 | 0.00 | 0.00 | 0.00 | 43 | 1011.0 |
| 20260504025826 | 9 | 257 | 8.0 | 9.7 | 0.00 | 0.00 | 0.00 | 43 | 1010.6 |
| 20260504025323 | 9 | 239 | 4.8 | 4.8 | 0.00 | 0.00 | 0.00 | 44 | 1011.0 |
| 20260504024820 | 9 | 232 | 6.4 | 9.7 | 0.00 | 0.00 | 0.00 | 44 | 1011.0 |
| 20260504024316 | 9 | 225 | 6.4 | 8.0 | 0.00 | 0.00 | 0.00 | 44 | 1011.0 |
| 20260504023813 | 9 | 269 | 6.4 | 4.8 | 0.00 | 0.00 | 0.00 | 44 | 1011.0 |
| 20260504023309 | 9 | 252 | 6.4 | 8.0 | 0.00 | 0.00 | 0.00 | 45 | 1011.3 |
| 20260504022805 | 9 | 236 | 4.8 | 4.8 | 0.00 | 0.00 | 0.00 | 45 | 1011.0 |
| 20260504022304 | 9 | 231 | 3.2 | 3.2 | 0.00 | 0.00 | 0.00 | 45 | 1011.3 |
| 20260504021758 | 9 | 234 | 6.4 | 4.8 | 0.00 | 0.00 | 0.00 | 45 | 1011.0 |
| 20260504021256 | 9 | 251 | 4.8 | 4.8 | 0.00 | 0.00 | 0.00 | 47 | 1011.0 |
| 20260504020753 | 9 | 217 | 4.8 | 8.0 | 0.00 | 0.00 | 0.00 | 46 | 1011.0 |
| 20260504020249 | 9 | 252 | 4.8 | 3.2 | 0.00 | 0.00 | 0.00 | 46 | 1011.3 |
| 20260504015745 | 9 | 260 | 8.0 | 9.7 | 0.00 | 0.00 | 0.00 | 46 | 1011.3 |
| 20260504015242 | 9 | 252 | 8.0 | 11.3 | 0.00 | 0.00 | 0.00 | 47 | 1011.3 |
| 20260504014738 | 9 | 280 | 8.0 | 12.9 | 0.00 | 0.00 | 0.00 | 47 | 1011.3 |
| 20260504014235 | 9 | 256 | 4.8 | 4.8 | 0.00 | 0.00 | 0.00 | 47 | 1011.3 |
| 20260504013732 | 8 | 230 | 8.0 | 9.7 | 0.00 | 0.00 | 0.00 | 48 | 1011.7 |
| 20260504013230 | 9 | 233 | 9.7 | 11.3 | 0.00 | 0.00 | 0.00 | 50 | 1011.3 |
| 20260504012726 | 10 | 247 | 16.1 | 24.1 | 0.00 | 0.00 | 0.00 | 45 | 1011.3 |
| 20260504012224 | 10 | 341 | 8.0 | 9.7 | 0.00 | 0.00 | 0.00 | 43 | 1011.0 |
| 20260504011721 | 10 | 274 | 4.8 | 8.0 | 0.00 | 0.00 | 0.00 | 44 | 1011.0 |
| 20260504011218 | 10 | 231 | 12.9 | 14.5 | 0.00 | 0.00 | 0.00 | 43 | 1011.0 |
| 20260504010714 | 9 | 244 | 9.7 | 12.9 | 0.00 | 0.00 | 0.00 | 46 | 1011.0 |
| 20260504010210 | 9 | 231 | 8.0 | 9.7 | 0.00 | 0.00 | 0.00 | 47 | 1011.0 |
| 20260504005706 | 9 | 241 | 9.7 | 16.1 | 0.00 | 0.00 | 0.00 | 46 | 1011.0 |
| 20260504005203 | 9 | 265 | 6.4 | 9.7 | 0.00 | 0.00 | 0.00 | 46 | 1011.0 |
| 20260504004702 | 9 | 320 | 14.5 | 17.7 | 0.00 | 0.00 | 0.00 | 46 | 1011.0 |
| 20260504004158 | 9 | 326 | 8.0 | 9.7 | 0.00 | 0.00 | 0.00 | 45 | 1011.0 |
| 20260504003654 | 9 | 255 | 22.5 | 25.7 | 0.00 | 0.00 | 0.00 | 45 | 1010.6 |
| 20260504003151 | 9 | 270 | 8.0 | 11.3 | 0.00 | 0.00 | 0.00 | 46 | 1011.0 |
| 20260504002648 | 9 | 239 | 4.8 | 8.0 | 0.00 | 0.00 | 0.00 | 46 | 1010.6 |
| 20260504002145 | 9 | 253 | 6.4 | 9.7 | 0.00 | 0.00 | 0.00 | 45 | 1010.6 |
| 20260504001643 | 10 | 290 | 4.8 | 3.2 | 0.00 | 0.00 | 0.00 | 46 | 1011.0 |
| 20260504001139 | 10 | 319 | 11.3 | 14.5 | 0.00 | 0.00 | 0.00 | 45 | 1011.0 |
| 20260504000636 | 10 | 321 | 9.7 | 16.1 | 0.00 | 0.00 | 0.00 | 45 | 1010.6 |
| 20260504000134 | 10 | 285 | 9.7 | 14.5 | 0.00 | 0.00 | 0.00 | 45 | 1010.6 |
| 20260503235631 | 10 | 328 | 14.5 | 16.1 | 0.00 | 0.00 | 0.00 | 44 | 1010.6 |
| 20260503235128 | 10 | 345 | 14.5 | 24.1 | 0.00 | 0.00 | 0.00 | 44 | 1010.6 |
| 20260503234626 | 10 | 238 | 12.9 | 22.5 | 0.00 | 0.00 | 0.00 | 42 | 1010.6 |
| 20260503234124 | 10 | 309 | 6.4 | 8.0 | 0.00 | 0.00 | 0.00 | 41 | 1010.2 |
| 20260503233621 | 10 | 295 | 8.0 | 12.9 | 0.00 | 0.00 | 0.00 | 40 | 1010.2 |
| 20260503233116 | 10 | 322 | 6.4 | 4.8 | 0.00 | 0.00 | 0.00 | 41 | 1010.2 |
| 20260503232613 | 10 | 267 | 3.2 | 3.2 | 0.00 | 0.00 | 0.00 | 41 | 1010.2 |
| 20260503232110 | 10 | 292 | 6.4 | 14.5 | 0.00 | 0.00 | 0.00 | 40 | 1009.9 |
| 20260503231608 | 10 | 277 | 8.0 | 9.7 | 0.00 | 0.00 | 0.00 | 41 | 1009.9 |
| 20260503231104 | 10 | 246 | 4.8 | 8.0 | 0.00 | 0.00 | 0.00 | 40 | 1009.9 |
| 20260503230601 | 11 | 276 | 4.8 | 4.8 | 0.00 | 0.00 | 0.00 | 39 | 1009.9 |
| 20260503230053 | 11 | 238 | 6.4 | 8.0 | 0.00 | 0.00 | 0.00 | 38 | 1009.9 |
| 20260503225550 | 11 | 225 | 8.0 | 11.3 | 0.00 | 0.00 | 0.00 | 38 | 1009.9 |
| 20260503225045 | 11 | 256 | 1.6 | 1.6 | 0.00 | 0.00 | 0.00 | 41 | 1009.9 |
| 20260503224543 | 10 | 282 | 0.0 | 1.6 | 0.00 | 0.00 | 0.00 | 41 | 1009.9 |
| 20260503224041 | 10 | 229 | 3.2 | 3.2 | 0.00 | 0.00 | 0.00 | 41 | 1009.9 |
| 20260503223539 | 10 | 277 | 4.8 | 4.8 | 0.00 | 0.00 | 0.00 | 41 | 1009.9 |
| 20260503223034 | 10 | 278 | 4.8 | 4.8 | 0.00 | 0.00 | 0.00 | 41 | 1009.9 |
| 20260503222532 | 10 | 240 | 3.2 | 3.2 | 0.00 | 0.00 | 0.00 | 42 | 1009.9 |
| 20260503222030 | 10 | 314 | 4.8 | 4.8 | 0.00 | 0.00 | 0.00 | 42 | 1009.9 |
| 20260503221528 | 10 | 318 | 3.2 | 3.2 | 0.00 | 0.00 | 0.00 | 40 | 1010.2 |
| 20260503221025 | 10 | 305 | 4.8 | 3.2 | 0.00 | 0.00 | 0.00 | 40 | 1009.9 |
| 20260503220520 | 10 | 230 | 4.8 | 4.8 | 0.00 | 0.00 | 0.00 | 41 | 1010.2 |
| 20260503220017 | 10 | 312 | 4.8 | 4.8 | 0.00 | 0.00 | 0.00 | 40 | 1009.9 |
| 20260503215515 | 10 | 276 | 3.2 | 3.2 | 0.00 | 0.00 | 0.00 | 40 | 1010.2 |
| 20260503215012 | 11 | 267 | 8.0 | 9.7 | 0.00 | 0.00 | 0.00 | 39 | 1009.9 |
| 20260503214511 | 11 | 262 | 1.6 | 3.2 | 0.00 | 0.00 | 0.00 | 40 | 1010.2 |
| 20260503214007 | 10 | 287 | 4.8 | 4.8 | 0.00 | 0.00 | 0.00 | 39 | 1009.9 |
| 20260503213505 | 11 | 321 | 8.0 | 11.3 | 0.00 | 0.00 | 0.00 | 39 | 1009.9 |
| 20260503213001 | 10 | 308 | 4.8 | 4.8 | 0.00 | 0.00 | 0.00 | 41 | 1010.2 |
| 20260503212458 | 10 | 322 | 11.3 | 14.5 | 0.00 | 0.00 | 0.00 | 41 | 1010.2 |
| 20260503211955 | 10 | 263 | 6.4 | 8.0 | 0.00 | 0.00 | 0.00 | 41 | 1010.2 |
| 20260503211452 | 10 | 318 | 6.4 | 11.3 | 0.00 | 0.00 | 0.00 | 41 | 1010.2 |
| 20260503210948 | 10 | 259 | 4.8 | 8.0 | 0.00 | 0.00 | 0.00 | 41 | 1010.2 |
| 20260503210445 | 10 | 304 | 8.0 | 8.0 | 0.00 | 0.00 | 0.00 | 41 | 1010.2 |
| 20260503205939 | 10 | 320 | 8.0 | 11.3 | 0.00 | 0.00 | 0.00 | 43 | 1009.9 |
| 20260503205437 | 10 | 291 | 9.7 | 14.5 | 0.00 | 0.00 | 0.00 | 42 | 1010.2 |
| 20260503204933 | 10 | 323 | 4.8 | 4.8 | 0.00 | 0.00 | 0.00 | 42 | 1010.2 |
| 20260503204430 | 10 | 282 | 8.0 | 9.7 | 0.00 | 0.00 | 0.00 | 42 | 1010.6 |
| 20260503203927 | 8 | 323 | 9.7 | 12.9 | 0.00 | 0.00 | 0.00 | 44 | 1010.6 |
| 20260503203425 | 8 | 332 | 9.7 | 11.3 | 0.00 | 0.00 | 0.00 | 44 | 1010.6 |
| 20260503202921 | 9 | 302 | 9.7 | 14.5 | 0.00 | 0.00 | 0.00 | 44 | 1010.6 |
| 20260503202420 | 9 | 233 | 8.0 | 11.3 | 0.00 | 0.00 | 0.00 | 42 | 1010.2 |
| 20260503201918 | 9 | 294 | 9.7 | 11.3 | 0.00 | 0.00 | 0.00 | 42 | 1010.6 |
| 20260503201414 | 9 | 205 | 8.0 | 16.1 | 0.00 | 0.00 | 0.00 | 41 | 1010.6 |
| 20260503200912 | 10 | 354 | 11.3 | 14.5 | 0.00 | 0.00 | 0.00 | 40 | 1010.6 |
| 20260503200408 | 10 | 267 | 4.8 | 4.8 | 0.00 | 0.00 | 0.00 | 41 | 1010.6 |
| 20260503195905 | 10 | 237 | 8.0 | 11.3 | 0.00 | 0.00 | 0.00 | 39 | 1010.6 |
| 20260503195402 | 10 | 309 | 6.4 | 8.0 | 0.00 | 0.00 | 0.00 | 40 | 1010.6 |
| 20260503194859 | 9 | 290 | 11.3 | 16.1 | 0.00 | 0.00 | 0.00 | 40 | 1010.6 |
| 20260503194355 | 10 | 333 | 8.0 | 11.3 | 0.00 | 0.00 | 0.00 | 39 | 1010.6 |
| 20260503193851 | 10 | 323 | 8.0 | 8.0 | 0.00 | 0.00 | 0.00 | 39 | 1010.6 |
| 20260503193347 | 9 | 293 | 6.4 | 8.0 | 0.00 | 0.00 | 0.00 | 40 | 1010.6 |
| 20260503192843 | 9 | 287 | 8.0 | 9.7 | 0.00 | 0.00 | 0.00 | 40 | 1011.0 |
| 20260503192338 | 9 | 323 | 12.9 | 16.1 | 0.00 | 0.00 | 0.00 | 39 | 1011.0 |
| 20260503191835 | 10 | 322 | 11.3 | 16.1 | 0.00 | 0.00 | 0.00 | 38 | 1011.0 |
| 20260503191332 | 10 | 225 | 8.0 | 9.7 | 0.00 | 0.00 | 0.00 | 37 | 1010.6 |
| 20260503190829 | 10 | 300 | 11.3 | 12.9 | 0.00 | 0.00 | 0.00 | 37 | 1011.0 |
| 20260503190327 | 10 | 282 | 8.0 | 11.3 | 0.00 | 0.00 | 0.00 | 35 | 1011.0 |
| 20260503185824 | 10 | 328 | 6.4 | 9.7 | 0.00 | 0.00 | 0.00 | 37 | 1011.0 |
| 20260503185320 | 10 | 322 | 3.2 | 4.8 | 0.00 | 0.00 | 0.00 | 39 | 1011.0 |
| 20260503184819 | 10 | 301 | 4.8 | 3.2 | 0.00 | 0.00 | 0.00 | 37 | 1011.0 |
| 20260503184316 | 10 | 319 | 6.4 | 11.3 | 0.00 | 0.00 | 0.00 | 37 | 1011.0 |
| 20260503183811 | 9 | 39 | 6.4 | 9.7 | 0.00 | 0.00 | 0.00 | 38 | 1011.0 |
| 20260503183309 | 9 | 129 | 8.0 | 9.7 | 0.00 | 0.00 | 0.00 | 39 | 1011.3 |
| 20260503182806 | 8 | 241 | 11.3 | 12.9 | 0.00 | 0.00 | 0.00 | 38 | 1011.0 |
| 20260503182306 | 10 | 283 | 11.3 | 16.1 | 0.00 | 0.00 | 0.00 | 37 | 1011.0 |
| 20260503181802 | 9 | 214 | 3.2 | 3.2 | 0.00 | 0.00 | 0.00 | 40 | 1011.3 |
| 20260503181259 | 9 | 307 | 4.8 | 9.7 | 0.00 | 0.00 | 0.00 | 39 | 1011.0 |
| 20260503180755 | 8 | 326 | 8.0 | 9.7 | 0.00 | 0.00 | 0.00 | 38 | 1011.3 |
| 20260503180253 | 9 | 250 | 9.7 | 12.9 | 0.00 | 0.00 | 0.00 | 37 | 1011.3 |
| 20260503175749 | 9 | 330 | 9.7 | 17.7 | 0.00 | 0.00 | 0.00 | 36 | 1011.7 |
| 20260503175248 | 9 | 250 | 3.2 | 3.2 | 0.00 | 0.00 | 0.00 | 36 | 1011.3 |
| 20260503174743 | 8 | 277 | 11.3 | 14.5 | 0.00 | 0.00 | 0.00 | 37 | 1011.7 |
| 20260503174242 | 8 | 317 | 4.8 | 4.8 | 0.00 | 0.00 | 0.00 | 37 | 1011.7 |
| 20260503173742 | 8 | 303 | 12.9 | 16.1 | 0.00 | 0.00 | 0.00 | 39 | 1011.7 |
| 20260503173238 | 8 | 324 | 9.7 | 11.3 | 0.00 | 0.00 | 0.00 | 41 | 1011.7 |
| 20260503172735 | 8 | 309 | 4.8 | 4.8 | 0.00 | 0.00 | 0.00 | 42 | 1011.7 |
| 20260503172232 | 8 | 314 | 8.0 | 11.3 | 0.00 | 0.00 | 0.00 | 39 | 1011.7 |
| 20260503171728 | 7 | 287 | 8.0 | 9.7 | 0.00 | 0.00 | 0.00 | 42 | 1011.7 |
| 20260503171226 | 8 | 310 | 14.5 | 17.7 | 0.00 | 0.00 | 0.00 | 40 | 1011.7 |
| 20260503170723 | 8 | 317 | 4.8 | 8.0 | 0.00 | 0.00 | 0.00 | 41 | 1012.0 |
| 20260503170220 | 7 | 243 | 4.8 | 4.8 | 0.00 | 0.00 | 0.00 | 41 | 1012.0 |
| 20260503160141 | 7 | 326 | 14.5 | 17.7 | 0.00 | 0.00 | 0.00 | 39 | 1012.4 |
| 20260503150611 | 5 | 200 | 8.0 | 14.5 | 0.00 | 0.00 | 0.00 | 42 | 1013.1 |
| 20260503150108 | 5 | 306 | 9.7 | 11.3 | 0.00 | 0.00 | 0.00 | 42 | 1013.1 |
| 20260503131001 | 3 | 241 | 4.8 | 8.0 | 0.00 | 0.00 | 0.00 | 51 | 1012.8 |
| 20260503130459 | 3 | 253 | 14.5 | 17.7 | 0.00 | 0.00 | 0.00 | 52 | 1012.8 |
| 20260503110350 | 0 | 295 | 3.2 | 4.8 | 0.00 | 0.00 | 0.00 | 84 | 1012.8 |
| 20260503090229 | 0 | 273 | 4.8 | 4.8 | 0.00 | 0.00 | 0.00 | 84 | 1012.0 |
| 20260503081151 | 0 | 307 | 3.2 | 3.2 | 0.00 | 0.00 | 0.00 | 83 | 1012.0 |
| 20260503080646 | 0 | 320 | 3.2 | 4.8 | 0.00 | 0.00 | 0.00 | 83 | 1011.7 |
| 20260503080144 | 0 | 262 | 0.0 | 1.6 | 0.00 | 0.00 | 0.00 | 84 | 1012.0 |
| 20260503072620 | 0 | 311 | 4.8 | 4.8 | 0.00 | 0.00 | 0.00 | 83 | 1012.0 |
| 20260503072117 | 0 | 299 | 6.4 | 8.0 | 0.00 | 0.00 | 0.00 | 82 | 1012.0 |
| 20260503071614 | 0 | 267 | 4.8 | 4.8 | 0.00 | 0.00 | 0.00 | 82 | 1012.0 |
| 20260503071111 | 1 | 294 | 3.2 | 4.8 | 0.00 | 0.00 | 0.00 | 82 | 1012.4 |
| 20260503070608 | 1 | 273 | 6.4 | 8.0 | 0.00 | 0.00 | 0.00 | 82 | 1012.0 |